Flag for Slovakia Weather past 2 weeks in Košice, Slovakia

Now
79 °F

Passing clouds.


Feels Like: 81 °F
Forecast: 66 / 80 °F
Wind: 2 mph from North

Location: Kosice - Barca

Current Time: Jul 30, 2014 at 5:37:29 PM

Latest Report: Jul 30, 2014 at 5:00 PM


Visibility: N/A

Pressure: 29.83 "Hg

Humidity: 61%

Dew point: 64 °F

Location of KošiceLocation

Historic Weather in Košice — Graph

°F

Košice temperature yesterday

Maximum temperature yesterday: 75 °F (at 10:00 AM)
Minimum temperature yesterday: 66 °F (at 1:00 AM)
Average temperature yesterday: 70 °F

Past Weeks' High & Low Weather Summary

 TemperatureHumidityPressure
High86 °F (Jul 20, 12:30 PM)100% (Jul 22, 12:00 AM)30.09 "Hg (Jul 22, 12:00 AM)
Low61 °F (Jul 20, 4:30 AM)31% (Jul 19, 6:00 PM)29.77 "Hg (Jul 21, 5:00 PM)
Average73 °F70%29.94 "Hg
* Reported Jul 15 4:00 PM — Jul 30 4:30 PM, Košice, Weather by CustomWeather, © 2014

Note: Actual official high and low records may vary slightly from our data, if they occured in-between our weather recording intervals... More about our weather records

Advertising

Košice weather history for previous 24 hours

 ConditionsComfort  
Time TempWeatherWind HumidityBarometerVisibility
4:30 PM
Jul 30
79 °FPassing clouds.5 mph65%29.83 "HgN/A
4:00 PM79 °FPassing clouds.6 mph65%29.83 "HgN/A
3:30 PM75 °FScattered clouds.8 mph74%29.83 "HgN/A
3:00 PM73 °FSprinkles. Scattered clouds.9 mph83%29.83 "HgN/A
2:30 PM75 °FSprinkles. Scattered clouds.6 mph74%29.83 "HgN/A
2:00 PM77 °FScattered clouds.8 mph69%29.86 "HgN/A
1:30 PM79 °FScattered clouds.3 mph61%29.86 "HgN/A
1:00 PM79 °FPartly sunny.2 mph61%29.86 "HgN/A
12:30 PM81 °FScattered clouds.1 mph58%29.86 "HgN/A
12:00 PM79 °FScattered clouds.2 mph61%29.86 "HgN/A
11:30 AM79 °FScattered clouds.2 mph61%29.86 "HgN/A
11:00 AM79 °FScattered clouds.2 mph65%29.86 "HgN/A
10:30 AM77 °FScattered clouds.2 mph69%29.86 "HgN/A
10:00 AM75 °FPassing clouds.2 mph69%29.86 "HgN/A
9:30 AM75 °FPassing clouds.2 mph69%29.86 "HgN/A
9:00 AM75 °FPassing clouds.1 mph74%29.86 "HgN/A
8:30 AM73 °FPassing clouds.2 mph74%29.86 "HgN/A
8:00 AM72 °FSunny.1 mph83%29.86 "Hg10 mi
7:30 AM68 °FPassing clouds.3 mph88%29.86 "HgN/A
7:00 AM66 °FScattered clouds.3 mph94%29.86 "HgN/A
6:30 AM64 °FPassing clouds.2 mph94%29.86 "HgN/A
6:00 AM63 °FPassing clouds.3 mph94%29.86 "HgN/A
5:30 AM63 °FPassing clouds.2 mph94%29.86 "HgN/A
5:00 AM63 °FPassing clouds.2 mph100%29.86 "HgN/A
4:30 AM63 °FPassing clouds.2 mph94%29.86 "HgN/A
4:00 AM63 °FPassing clouds.2 mph100%29.83 "HgN/A
3:30 AM64 °FPassing clouds.3 mph94%29.83 "HgN/A
3:00 AM64 °FPassing clouds.2 mph94%29.86 "HgN/A
2:30 AM63 °FPassing clouds.3 mph100%29.86 "HgN/A
2:00 AM64 °FPassing clouds.3 mph94%29.86 "HgN/A
1:30 AM64 °FPassing clouds.3 mph94%29.86 "HgN/A
1:00 AM66 °FPassing clouds.2 mph88%29.86 "HgN/A
12:30 AM64 °FPassing clouds.2 mph94%29.86 "HgN/A
12:00 AM64 °FPassing clouds.2 mph94%29.86 "HgN/A
11:30 PM
Jul 29
66 °FPassing clouds.2 mph94%29.86 "HgN/A
11:00 PM66 °FPassing clouds.2 mph94%29.86 "HgN/A
10:30 PM66 °FPassing clouds.2 mph94%29.86 "HgN/A
10:00 PM66 °FClear.3 mph94%29.86 "Hg10 mi
9:30 PM66 °FPassing clouds.3 mph94%29.86 "HgN/A
9:00 PM66 °FScattered clouds.3 mph94%29.86 "HgN/A
8:30 PM68 °FSprinkles. Scattered clouds.3 mph88%29.86 "HgN/A
8:00 PM70 °FScattered clouds.5 mph88%29.83 "HgN/A
7:30 PM72 °FSprinkles. Scattered clouds.6 mph83%29.83 "HgN/A
7:00 PM73 °FScattered clouds.5 mph74%29.83 "HgN/A
6:30 PM73 °FScattered clouds.5 mph74%29.86 "HgN/A
6:00 PM75 °FPassing clouds.5 mph65%29.83 "HgN/A
5:30 PM73 °FPassing clouds.3 mph69%29.86 "HgN/A
5:00 PM75 °FPassing clouds.5 mph65%29.86 "HgN/A
Weather by CustomWeather, © 2014

See weather overviewHow to use our weather pages